Theta_e
290 290 289 289 288 289 288 287 287 286 286 286 285 284 284 284 284 285 285 285 285 285 285 285 285 285 286 285 286 286 285 285 285 285 285 285 285 285 285 285 285 285
289 289 288 288 287 287 287 287 286 285 284 284 284 284 284 284 284 285 285 285 285 285 285 285 285 284 284 284 284 284 284 284 284 285 284 284 284 284 284 284 285 285
288 288 288 287 286 285 285 285 284 284 284 284 284 284 284 284 284 284 284 284 284 284 283 284 283 283 283 283 283 284 283 283 283 284 283 284 284 283 284 284 284 284
287 287 287 286 286 285 286 285 285 285 285 284 283 284 284 284 284 283 283 283 283 282 282 282 282 282 282 282 282 282 282 282 283 282 282 283 283 283 283 283 283 283
286 286 286 286 286 286 286 285 284 284 283 283 283 283 282 282 282 281 281 281 282 281 281 281 281 281 280 280 281 281 281 281 281 281 281 281 282 282 282 282 282 282
285 285 285 285 285 285 284 283 282 283 282 281 281 281 281 281 280 280 280 280 280 280 279 279 279 279 279 279 279 279 279 279 279 279 279 279 280 281 281 281 280 280
284 284 283 284 284 283 282 281 281 281 280 280 280 279 279 279 279 279 279 279 278 278 278 278 278 277 278 278 278 277 278 278 278 278 277 278 279 278 279 279 279 279
282 283 283 283 282 282 281 281 280 280 280 279 279 279 279 278 278 278 278 277 277 277 277 277 276 276 277 276 276 276 276 277 277 276 276 277 277 277 278 278 278 278
281 281 281 281 281 280 279 279 279 279 278 278 278 278 278 277 277 277 276 276 276 276 276 275 275 275 275 275 275 275 275 275 276 276 276 276 276 276 277 277 277 277
281 280 280 280 279 279 278 278 278 277 277 276 276 277 276 276 275 275 275 275 275 274 274 274 274 274 274 275 274 274 274 274 275 275 275 276 275 276 276 276 276 275
280 280 279 279 278 278 277 276 276 276 276 275 275 275 275 275 275 275 274 274 273 273 273 273 273 273 273 273 274 274 274 274 275 275 275 275 275 275 275 275 275 275
278 277 277 277 276 276 275 275 275 274 274 275 274 274 274 274 273 273 273 273 273 272 272 272 273 273 272 273 273 273 274 275 275 275 275 275 275 275 275 275 275 274
277 277 277 276 276 275 275 274 274 274 274 273 273 272 272 272 272 272 273 272 272 272 271 271 272 272 272 272 272 273 274 275 275 275 275 275 275 275 275 275 274 274
277 277 276 276 275 275 274 274 273 273 272 273 272 272 272 271 271 271 272 272 271 271 271 271 271 271 271 272 273 273 274 274 274 274 274 274 274 274 274 274 274 274
277 276 276 275 274 274 273 273 272 272 272 271 271 271 271 271 270 271 270 271 271 270 270 270 270 271 270 271 272 273 274 273 273 273 273 273 273 273 274 274 274 274
276 275 274 274 273 273 272 272 271 271 271 270 270 270 270 270 270 270 270 270 270 270 270 270 270 270 269 271 273 273 273 273 273 273 273 273 272 272 273 273 273 273
275 274 274 273 273 272 271 271 270 270 270 269 269 269 269 269 269 269 269 269 269 269 269 269 269 269 269 272 273 274 273 273 272 272 273 272 272 272 272 272 273 273
274 273 273 272 271 271 270 269 269 269 269 268 268 268 268 268 268 268 268 268 268 268 268 268 268 269 270 271 273 273 274 273 273 272 272 272 272 272 272 272 271 271
273 272 272 271 270 269 269 268 268 268 267 267 267 267 267 268 268 267 267 267 267 267 267 268 268 268 269 271 272 273 274 273 272 272 271 271 272 271 271 271 270 270
272 271 271 270 269 268 268 267 267 267 267 267 267 267 267 266 266 266 266 266 266 266 266 267 267 267 269 271 272 273 273 273 272 272 272 271 271 271 270 270 270 269
271 271 270 269 268 267 267 267 266 266 266 267 267 266 266 266 265 265 265 264 265 265 265 265 265 267 269 270 271 272 273 273 272 271 270 270 270 270 270 270 270 270
271 270 269 268 268 267 266 267 266 266 265 266 265 266 266 265 265 265 264 263 264 263 263 264 265 267 268 269 271 272 273 271 270 269 269 269 270 270 270 270 270 270
270 269 268 268 267 266 266 266 266 265 265 265 264 265 265 264 263 263 263 263 262 262 262 263 263 265 267 269 270 271 271 269 269 269 269 268 269 269 270 270 271 271
270 269 268 267 266 265 265 266 265 265 264 264 264 264 263 263 263 263 263 263 262 262 262 261 262 264 267 269 270 271 271 269 269 268 268 268 268 269 270 270 271 272
269 268 267 266 265 265 264 264 264 264 264 263 263 263 262 263 262 262 262 262 262 261 262 262 262 263 266 268 269 270 270 269 269 268 268 268 268 268 270 270 271 272
267 266 266 265 265 264 263 263 263 263 262 263 262 263 263 262 262 262 260 261 262 261 261 262 262 262 263 267 269 270 271 270 270 268 268 268 268 268 268 270 271 271
Wind_Speed
8 8 8 8 7 7 6 6 5 5 4 3 4 3 3 3 2 2 2 3 4 4 5 5 5 5 4 5 5 4 4 4 4 4 4 4 3 4 4 5 5 5
8 8 8 7 7 6 5 5 5 4 4 3 3 3 2 2 2 2 2 2 3 4 4 5 5 5 5 5 5 4 4 4 4 3 4 4 4 4 4 6 5 5
7 8 8 8 7 7 7 6 5 4 4 4 3 3 2 1 2 3 4 4 4 5 5 5 5 6 6 5 5 4 4 4 4 5 4 4 4 4 5 5 5 6
7 7 7 7 7 6 5 5 4 4 3 3 4 3 3 3 4 5 5 7 6 7 7 7 7 7 7 7 7 5 6 5 5 6 6 5 5 5 5 5 6 6
7 6 6 6 6 6 5 5 5 5 5 5 5 5 5 6 7 7 8 7 7 7 7 7 7 6 7 6 6 5 5 4 5 5 5 5 5 5 5 5 6 7
6 6 6 5 5 5 5 6 6 6 6 6 6 5 6 6 6 6 6 6 5 5 5 5 5 5 5 5 5 4 4 4 5 5 5 6 6 5 5 5 7 7
7 6 6 5 6 6 7 6 6 6 5 5 4 4 4 4 4 4 4 4 4 4 4 4 4 4 4 4 4 4 4 4 5 5 6 5 5 6 5 5 6 7
7 5 5 6 7 7 7 6 5 4 3 3 3 3 3 3 4 3 3 4 3 3 3 3 4 4 4 3 4 4 5 3 4 5 6 6 5 6 6 5 6 7
6 5 6 7 7 6 5 5 4 4 3 3 3 2 3 3 4 3 2 2 2 2 3 3 4 3 3 3 4 4 5 4 4 5 6 6 6 7 7 7 8 8
6 6 6 5 6 5 5 4 3 3 3 3 2 2 1 1 1 2 2 2 2 2 3 3 3 4 4 4 4 5 5 6 5 5 6 6 7 7 8 8 8 8
6 5 5 5 5 5 5 4 3 2 2 1 1 1 1 1 2 2 2 2 2 2 3 3 4 4 5 4 4 4 5 5 6 6 6 6 7 7 7 7 8 8
5 4 5 5 5 4 4 3 2 2 2 2 2 2 2 2 1 1 2 2 2 3 3 4 4 4 4 5 5 5 5 5 5 6 6 7 7 7 7 7 8 9
5 4 4 4 3 3 3 3 3 3 3 2 2 1 1 1 1 1 1 1 2 2 3 4 4 4 4 5 5 6 6 6 7 7 7 7 6 7 8 8 8 8
5 4 4 3 3 3 4 4 4 3 3 2 2 1 1 1 1 1 1 1 2 2 3 3 4 4 4 5 6 7 7 7 8 8 8 8 8 8 8 8 9 9
5 4 3 3 4 4 4 4 3 3 2 2 2 1 1 0 1 1 2 2 2 2 3 3 3 3 4 6 8 9 8 9 9 9 9 10 10 10 10 10 10 10
5 4 4 4 4 4 4 3 3 3 3 2 2 1 1 1 1 1 1 2 3 3 3 3 3 2 5 10 10 8 9 8 8 9 9 9 10 10 10 10 11 10
5 5 5 5 5 4 3 3 3 3 2 2 1 1 0 1 1 1 2 2 3 3 4 3 3 3 8 11 12 13 10 9 9 10 10 10 10 10 11 11 10 11
6 5 5 5 4 4 4 3 3 3 2 2 1 1 1 1 1 2 2 2 2 3 4 4 4 5 10 12 13 13 12 10 9 9 9 9 9 10 10 10 11 10
6 6 5 5 4 4 3 3 2 2 2 2 1 0 1 1 1 2 2 2 3 4 4 5 5 7 10 13 14 14 14 12 9 9 9 10 10 11 11 11 11 11
6 5 5 5 4 4 3 2 2 2 2 1 1 1 1 1 1 2 2 3 4 4 5 5 7 7 12 14 14 15 15 13 10 10 10 11 11 10 10 10 11 11
6 6 5 5 4 3 3 2 2 2 2 1 1 1 1 1 2 2 2 3 4 4 5 6 6 10 12 14 14 15 15 14 9 9 9 10 10 10 11 11 12 12
7 6 5 5 4 3 3 3 3 2 2 1 1 1 1 1 1 2 3 4 4 5 6 7 7 10 13 14 15 15 16 9 8 8 9 9 10 10 10 10 11 12
7 7 6 5 4 4 4 3 3 3 2 1 1 1 1 1 2 2 3 3 5 5 6 7 7 9 12 14 15 16 12 8 8 8 8 9 10 10 11 11 11 12
7 6 6 5 5 5 4 3 3 2 2 1 1 1 1 1 2 2 3 3 4 6 5 7 8 9 13 15 15 15 12 9 8 8 9 9 10 10 10 11 12 20
6 6 5 6 6 5 4 4 3 3 2 1 1 1 1 2 2 2 3 3 4 5 9 9 8 9 12 14 15 15 11 8 8 8 9 9 9 10 10 12 13 15
6 6 6 6 5 5 4 4 3 3 2 1 1 1 1 1 2 2 3 4 4 5 6 6 7 7 9 14 14 15 14 9 8 8 9 10 10 10 11 11 13 13
Wind_Direction
99 100 98 96 92 93 96 98 95 95 89 88 88 86 78 79 59 50 50 49 46 43 39 35 30 25 17 19 10 8 22 19 12 18 357 356 346 343 334 335 324 321
103 102 102 103 102 100 99 99 105 102 100 96 98 102 93 87 78 61 42 43 51 46 36 31 27 23 16 12 1 5 9 7 9 5 340 340 336 330 323 321 309 314
113 112 111 108 109 110 108 105 109 118 116 114 108 93 92 78 58 52 47 34 37 37 31 26 22 20 14 9 356 0 3 357 4 356 342 343 338 332 330 321 318 313
111 108 110 116 122 130 131 124 122 112 110 93 66 60 58 46 37 34 32 29 27 22 21 17 15 11 7 3 357 358 355 352 357 348 340 335 331 326 322 319 310 308
123 120 118 112 109 107 109 101 89 78 69 61 52 40 36 27 26 24 21 19 19 14 11 8 6 4 358 354 347 344 342 341 345 341 328 321 317 318 311 310 307 302
112 106 98 97 96 96 86 75 66 58 51 44 37 34 33 30 30 26 22 16 12 10 1 360 356 352 345 336 328 333 330 334 333 327 320 314 313 315 311 306 306 304
107 103 104 101 94 84 81 73 65 59 54 48 44 41 33 32 30 25 17 11 1 360 352 342 339 331 326 320 319 323 323 320 315 319 312 308 307 305 303 302 300 299
106 108 103 97 90 80 76 75 72 70 68 63 64 52 41 27 25 15 8 353 345 329 323 314 307 302 307 309 317 318 317 310 307 311 309 308 311 311 318 315 310 307
115 103 96 96 96 94 95 94 89 82 71 67 55 47 37 27 11 359 335 324 296 292 292 291 299 303 310 315 318 322 320 320 317 318 317 319 322 322 324 322 319 316
108 108 115 119 112 107 105 96 90 88 69 63 52 40 27 10 326 290 282 281 266 285 287 291 310 321 324 328 328 330 328 325 324 323 321 320 320 321 323 323 320 318
119 127 127 117 108 103 103 97 94 89 92 99 94 170 213 229 247 241 260 272 251 301 311 324 327 329 331 330 331 328 324 323 322 325 321 321 321 319 321 320 318 317
129 127 118 106 103 109 120 125 130 144 156 161 161 196 202 208 232 268 247 292 302 329 324 327 323 324 325 329 329 329 326 327 326 324 326 324 320 319 321 319 317 315
138 131 122 126 137 145 150 160 165 164 170 157 164 173 172 219 258 265 276 317 319 333 328 323 319 321 330 335 336 335 335 332 331 326 323 323 316 317 314 314 312 308
138 130 135 147 154 165 175 170 164 159 153 149 146 165 165 219 283 306 300 309 311 307 315 313 321 327 341 345 343 339 335 332 327 324 320 315 312 309 311 306 306 304
137 136 144 163 180 183 181 171 153 140 144 149 148 155 169 260 304 294 303 301 311 313 318 322 324 338 359 346 338 334 331 323 319 315 312 308 309 306 306 304 303 302
144 148 170 180 188 190 185 170 153 147 153 149 146 122 145 336 290 303 313 324 327 329 329 320 326 333 333 328 325 321 319 313 309 306 306 303 303 303 302 301 300 294
155 167 175 190 192 187 181 169 150 150 148 145 130 103 77 351 296 331 338 328 331 332 330 322 310 317 317 320 319 317 314 307 303 302 301 299 297 297 298 299 296 297
164 164 184 191 183 187 182 164 143 141 139 113 107 97 352 320 312 341 329 334 328 326 317 307 301 303 313 317 315 314 311 306 301 298 296 293 293 293 293 294 297 299
161 171 185 185 188 186 180 150 128 139 129 129 136 125 257 279 332 330 328 331 319 319 309 300 293 305 313 315 313 312 310 307 298 292 290 288 290 290 290 292 295 297
163 176 185 182 184 185 161 140 143 145 125 151 159 223 227 289 306 306 323 324 320 312 303 298 296 305 312 313 313 310 308 305 295 292 288 286 287 288 287 288 289 291
169 180 184 179 180 170 153 158 161 139 154 176 189 234 264 290 306 317 314 311 308 305 302 298 290 299 310 312 311 309 306 306 297 292 288 284 285 284 283 284 286 287
173 181 181 179 170 163 174 174 156 160 164 172 202 243 244 256 287 297 299 300 302 302 298 292 291 304 310 310 309 309 309 307 297 290 286 284 285 285 284 284 285 287
179 179 177 173 165 176 181 169 160 170 169 172 195 252 258 286 285 292 297 297 297 294 293 291 295 300 305 307 307 308 310 300 293 288 284 287 285 287 287 285 283 285
177 174 169 170 174 186 171 160 152 163 171 174 205 238 272 279 293 293 280 281 283 287 288 292 291 294 301 304 306 307 305 302 296 290 288 288 289 288 288 287 283 276
168 171 170 172 184 172 160 161 168 171 164 181 198 215 247 256 280 279 281 283 270 278 285 285 285 290 296 304 305 305 305 298 294 291 289 290 291 290 286 278 276 277
164 165 171 177 173 158 161 165 157 163 170 173 206 256 253 283 282 279 283 284 279 276 277 278 285 288 289 300 303 303 304 301 295 292 289 290 289 280 276 271 271 273